This is the latest recevied weather packets stored in our database for station/object WX5RP. If no packets are shown the sender has not sent any weather packets the latest 10 day(s).
| Time | Temp. | Humidity | Pressure | Rain* | Wind** | Luminosity | Snow |
|---|---|---|---|---|---|---|---|
| 1778289316 | 20° C | 24% | 1018.2 hPa | 0 mm | - | 98 W/m² | - |
| 1778288717 | 20.56° C | 23% | 1019 hPa | 0 mm | - | 241 W/m² | - |
| 1778288117 | 21.11° C | 21% | 1019.3 hPa | 0 mm | - | 202 W/m² | - |
| 1778287516 | 20.56° C | 23% | 1019.4 hPa | 0 mm | - | 197 W/m² | - |
| 1778286916 | 21.11° C | 22% | 1019.6 hPa | 0 mm | - | 365 W/m² | - |
| 1778286316 | 21.11° C | 25% | 1019.4 hPa | 0 mm | - | 469 W/m² | - |
| 1778285716 | 21.67° C | 23% | 1019.3 hPa | 0 mm | - | 468 W/m² | - |
| 1778285116 | 21.67° C | 23% | 1018.9 hPa | 0 mm | - | 396 W/m² | - |
| 1778284516 | 21.67° C | 24% | 1018.9 hPa | 0 mm | - | 509 W/m² | - |
| 1778283916 | 22.22° C | 24% | 1018.9 hPa | 0 mm | - | 542 W/m² | - |
| 1778283316 | 22.78° C | 26% | 1019.2 hPa | 0 mm | - | 593 W/m² | - |
| 1778282716 | 22.22° C | 25% | 1018.8 hPa | 0 mm | - | 651 W/m² | - |
| 1778282116 | 22.78° C | 23% | 1018.8 hPa | 0 mm | - | 714 W/m² | - |
| 1778281516 | 22.22° C | 24% | 1019.1 hPa | 0 mm | - | 753 W/m² | - |
| 1778280917 | 22.22° C | 24% | 1019.5 hPa | 0 mm | - | 722 W/m² | - |
| 1778280316 | 22.78° C | 26% | 1019.2 hPa | 0 mm | - | 774 W/m² | - |
| 1778279715 | 22.22° C | 25% | 1019.7 hPa | 0 mm | - | 789 W/m² | - |
| 1778279115 | 22.22° C | 23% | 1020.2 hPa | 0 mm | - | 784 W/m² | - |
| 1778278516 | 22.22° C | 24% | 1020.5 hPa | 0 mm | - | 816 W/m² | - |
| 1778277916 | 21.67° C | 24% | 1019.3 hPa | 0 mm | - | 803 W/m² | - |
| 1778277316 | 22.22° C | 21% | 1018.9 hPa | 0 mm | - | 801 W/m² | - |
| 1778276715 | 21.67° C | 20% | 1018.6 hPa | 0 mm | - | 841 W/m² | - |
| 1778276115 | 22.22° C | 19% | 1018.8 hPa | 0 mm | - | 861 W/m² | - |
| 1778275515 | 22.22° C | 21% | 1019.3 hPa | 0 mm | - | 78 W/m² | - |
| 1778274917 | 22.22° C | 17% | 1020.1 hPa | 0 mm | - | 942 W/m² | - |
* Rain latest hour (hover to see other rain measurements)
** Current wind speed in m/s (hover to see current wind gust speed)